Weather History for Toledo, OH

Change the Weather History Date:

Friday, July 12, 2013

  Actual Average Record
Temperature  
Mean Temperature 69 °F 74 °F  
Max Temperature 80 °F 85 °F 99 °F (1936)
Min Temperature 58 °F 63 °F 45 °F (1978)
Degree Days  
Heating Degree Days 0 0  
Month to date heating degree days 1 0  
Since 1 June heating degree days 32 35  
Since 1 July heating degree days 1 0  
Cooling Degree Days 4 9  
Month to date cooling degree days 91 106  
Year to date cooling degree days 347 329  
Since 1 June cooling degree days 253 276  
Growing Degree Days 18 (Base 50)    
Moisture  
Dew Point 57 °F    
Average Humidity 68    
Maximum Humidity 93    
Minimum Humidity 42    
Precipitation  
Precipitation 0.00 in 0.10 in 1.86 in (1992)
Month to date precipitation 1.97 1.19  
Year to date precipitation 22.82 18.13  
Snow  
Snow 0.00 in 0.00 in - ()
Month to date snowfall 0.0 0.0  
Since 1 June snowfall 0.0 0.0  
Since 1 July snowfall 0.0 0.0  
Snow Depth 0.00 in    
Sea Level Pressure  
Sea Level Pressure 30.11 in    
Wind  
Wind Speed 6 mph (NE)    
Max Wind Speed 15 mph    
Max Gust Speed 21 mph    
Visibility 10 miles    
Events      
T = Trace of Precipitation, MM = Missing Value Source: NWS Daily Summary

Daily Weather History Graph

Daily Weather History Graph

Search for Another Location

Airport:

Trip Planner

Search our weather history database for the weather conditions in past years. The results will help you decide how hot, cold, wet, or windy it might be!

Date:

Astronomy

Jul. 12, 2013 Rise Set
Actual Time 6:12 AM EDT 9:09 PM EDT
Civil Twilight 5:38 AM EDT 9:42 PM EDT
Nautical Twilight 4:56 AM EDT 10:24 PM EDT
Astronomical Twilight 4:07 AM EDT 11:13 PM EDT
Moon 10:31 AM EDT (7/12) 11:14 PM EDT (7/12)
Length of Visible Light 16h 03m
Length of Day
14h 57m
Waxing Crescent, 17% of the Moon is Illuminated
Jul 12
Waxing Crescent
Jul 15
First Quarter
Jul 22
Full
Jul 29
Last Quarter
Aug 6
New

Hourly Weather History & Observations

Time (EDT) Temp. Dew Point Humidity Pressure Visibility Wind Dir Wind Speed Gust Speed Precip Events Conditions
12:52 AM 61.0 °F 57.9 °F 90% 30.06 in 10.0 mi Calm Calm - N/A   Clear
1:52 AM 61.0 °F 57.9 °F 90% 30.07 in 10.0 mi Calm Calm - N/A   Clear
2:52 AM 59.0 °F 57.0 °F 93% 30.07 in 10.0 mi Calm Calm - N/A   Clear
3:52 AM 60.1 °F 57.0 °F 90% 30.07 in 10.0 mi Calm Calm - N/A   Clear
4:52 AM 60.1 °F 57.0 °F 90% 30.09 in 10.0 mi Calm Calm - N/A   Clear
5:52 AM 59.0 °F 55.9 °F 90% 30.11 in 10.0 mi North 5.8 mph - N/A   Clear
6:52 AM 57.9 °F 55.9 °F 93% 30.12 in 10.0 mi North 3.5 mph - N/A   Clear
7:52 AM 61.0 °F 55.9 °F 83% 30.13 in 10.0 mi NNE 4.6 mph - N/A   Clear
8:52 AM 64.9 °F 57.9 °F 78% 30.14 in 10.0 mi North 5.8 mph - N/A   Clear
9:52 AM 66.0 °F 57.9 °F 75% 30.15 in 10.0 mi NNE 6.9 mph - N/A   Partly Cloudy
10:52 AM 70.0 °F 57.9 °F 65% 30.14 in 10.0 mi Variable 4.6 mph - N/A   Clear
11:52 AM 72.0 °F 59.0 °F 64% 30.13 in 10.0 mi NNE 5.8 mph - N/A   Clear
12:52 PM 75.0 °F 59.0 °F 57% 30.13 in 10.0 mi ENE 11.5 mph - N/A   Partly Cloudy
1:52 PM 75.9 °F 59.0 °F 56% 30.12 in 10.0 mi NE 9.2 mph - N/A   Partly Cloudy
2:52 PM 78.1 °F 54.0 °F 43% 30.12 in 10.0 mi ENE 12.7 mph - N/A   Partly Cloudy
3:52 PM 79.0 °F 55.0 °F 44% 30.12 in 10.0 mi ENE 10.4 mph - N/A   Clear
4:52 PM 79.0 °F 55.0 °F 44% 30.11 in 10.0 mi ENE 10.4 mph - N/A   Partly Cloudy
5:52 PM 78.1 °F 55.9 °F 46% 30.11 in 10.0 mi ENE 10.4 mph - N/A   Clear
6:52 PM 77.0 °F 55.0 °F 47% 30.10 in 10.0 mi NE 12.7 mph - N/A   Clear
7:52 PM 75.0 °F 57.0 °F 53% 30.10 in 10.0 mi East 12.7 mph - N/A   Clear
8:52 PM 71.1 °F 57.9 °F 63% 30.11 in 10.0 mi East 4.6 mph - N/A   Clear
9:52 PM 66.9 °F 59.0 °F 76% 30.12 in 10.0 mi ENE 3.5 mph - N/A   Clear
10:52 PM 64.9 °F 60.1 °F 84% 30.12 in 10.0 mi East 4.6 mph - N/A   Clear
11:52 PM 64.0 °F 60.1 °F 87% 30.13 in 10.0 mi Calm Calm - N/A   Clear